sat.trackr.live / text

‹ back to catalog

POLAR SCOUT YUKON

NORAD 43808 · 2018-099BC

PAYLOAD ACTIVE UNKNOWN

§ Identity

Operator
Country
US
Launch date
2018-12-03
Launch site
AFWTR
Launch vehicle
Mass (kg)
RCS (m²)

External: N2YO · Heavens-Above · Gunter

§ Orbital elements

Epoch: 2026-09-03T04:44:53.848608Z

Period
93.44 min
Inclination
97.4622°
Eccentricity
0.0005296
Mean motion
15.41059557 rev/d
Perigee alt
439.4 km
Apogee alt
446.6 km
Semi-major
6,821.1 km
B*
3.8279e-4
RAAN
320.5183°
Arg perigee
58.7445°
Mean anomaly
301.4320°
Rev number
42,551

§ Raw data

POLAR SCOUT YUKON1 43808U 18099BC  26246.19784547  .00015748  00000+0  38279-3 0  99912 43808  97.4622 320.5183 0005296  58.7445 301.4320 15.41059557425514

JSON: /api/v1/satellites/43808 · /tle

For live sub-satellite position, see the globe view (requires WebGL).

§ Visibility from observer

Set your observer location to see the next 7 days of passes ≥ 10°. The values pass through the URL so the page stays shareable.

No JS? Fill the form by hand. The geolocation button needs JavaScript.